2020-09-21 00:07:46 r, 20.88m,0000000001Hz,0001209657c,0000002.625s, 031.5C,00002191
2020-09-21 00:17:45 r, 20.85m,0000000001Hz,0001178880c,0000002.558s, 031.2C,00002191
2020-09-21 00:27:45 r, 20.76m,0000000000Hz,0001095855c,0000002.378s, 030.9C,00002191
2020-09-21 00:37:46 r, 20.77m,0000000001Hz,0001102308c,0000002.392s, 030.6C,00002191
2020-09-21 00:47:45 r, 20.75m,0000000000Hz,0001077260c,0000002.338s, 030.2C,00002191
2020-09-21 00:57:45 r, 20.54m,0000000001Hz,0000898590c,0000001.950s, 029.9C,00002191
2020-09-21 01:07:46 r, 20.55m,0000000000Hz,0000907959c,0000001.970s, 029.6C,00002191
2020-09-21 01:17:45 r, 20.75m,0000000001Hz,0001083134c,0000002.351s, 029.6C,00002191
2020-09-21 01:27:45 r, 20.82m,0000000001Hz,0001153133c,0000002.502s, 029.3C,00002191
2020-09-21 01:37:47 r, 20.86m,0000000001Hz,0001198002c,0000002.600s, 029.0C,00002191
2020-09-21 01:47:45 r, 20.91m,0000000000Hz,0001254458c,0000002.722s, 029.0C,00002191
2020-09-21 01:57:45 r, 20.91m,0000000000Hz,0001245225c,0000002.702s, 029.0C,00002191
2020-09-21 02:07:47 r, 20.87m,0000000000Hz,0001211514c,0000002.629s, 029.0C,00002191
2020-09-21 02:17:45 r, 20.89m,0000000001Hz,0001232647c,0000002.675s, 028.6C,00002191
2020-09-21 02:27:45 r, 20.93m,0000000000Hz,0001280752c,0000002.779s, 029.0C,00002191
2020-09-21 02:37:46 r, 20.92m,0000000000Hz,0001262214c,0000002.739s, 029.0C,00002191
2020-09-21 02:47:45 r, 20.93m,0000000000Hz,0001284603c,0000002.788s, 029.0C,00002191
2020-09-21 02:57:45 r, 20.96m,0000000000Hz,0001314155c,0000002.852s, 029.3C,00002191
2020-09-21 03:07:46 r, 20.97m,0000000000Hz,0001321929c,0000002.869s, 029.3C,00002191
2020-09-21 03:17:45 r, 20.96m,0000000001Hz,0001313435c,0000002.850s, 029.0C,00002191
2020-09-21 03:27:45 r, 20.94m,0000000001Hz,0001289939c,0000002.799s, 029.0C,00002191
2020-09-21 03:37:47 r, 20.67m,0000000000Hz,0000999729c,0000002.170s, 029.0C,00002191
2020-09-21 03:47:46 r, 21.03m,0000000000Hz,0001401317c,0000003.041s, 029.0C,00002191
2020-09-21 03:57:45 r, 21.04m,0000000000Hz,0001415223c,0000003.071s, 029.0C,00002191
2020-09-21 04:07:47 r, 20.86m,0000000000Hz,0001200429c,0000002.605s, 029.0C,00002191
2020-09-21 04:17:46 r, 20.21m,0000000000Hz,0000666890c,0000001.447s, 029.0C,00002191
2020-09-21 04:27:45 r, 20.33m,0000000001Hz,0000740096c,0000001.606s, 029.0C,00002191
2020-09-21 04:37:46 r, 21.22m,0000000000Hz,0001647699c,0000003.576s, 029.0C,00002191
2020-09-21 04:47:47 r, 21.25m,0000000001Hz,0001689095c,0000003.666s, 029.0C,00002191
2020-09-21 04:57:45 r, 21.03m,0000000000Hz,0001396052c,0000003.030s, 029.0C,00002191
2020-09-21 05:07:46 r, 21.00m,0000000000Hz,0001360999c,0000002.954s, 028.6C,00002191
2020-09-21 05:17:46 r, 20.93m,0000000000Hz,0001285058c,0000002.789s, 028.6C,00002191
2020-09-21 05:27:45 r, 20.38m,0000000000Hz,0000774761c,0000001.681s, 028.6C,00002191
2020-09-21 05:37:46 r, 20.49m,0000000000Hz,0000857200c,0000001.860s, 029.0C,00002191
2020-09-21 05:47:47 r, 20.29m,0000000000Hz,0000716131c,0000001.554s, 029.0C,00002191
2020-09-21 05:57:45 r, 19.96m,0000000001Hz,0000527840c,0000001.145s, 029.0C,00002191
2020-09-21 06:07:48 r, 19.30m,0000000002Hz,0000287238c,0000000.623s, 029.3C,00002191
2020-09-21 06:17:46 r, 18.23m,0000000004Hz,0000107660c,0000000.234s, 029.3C,00002191
2020-09-21 06:27:45 r, 16.84m,0000000015Hz,0000029786c,0000000.065s, 029.0C,00002191
2020-09-21 06:37:48 r, 14.70m,0000000109Hz,0000004174c,0000000.009s, 029.0C,00002191
2020-09-21 06:47:46 r, 12.50m,0000000847Hz,0000000000c,0000000.000s, 029.0C,00002191
2020-09-21 06:57:45 r, 10.91m,0000003655Hz,0000000000c,0000000.000s, 029.0C,00002191
2020-09-21 07:07:46 r, 08.96m,0000022134Hz,0000000000c,0000000.000s, 029.0C,00002191
2020-09-21 07:17:46 r, 08.64m,0000029470Hz,0000000000c,0000000.000s, 029.0C,00002191
2020-09-21 07:27:45 r, 07.96m,0000055249Hz,0000000000c,0000000.000s, 029.3C,00002191
2020-09-21 07:37:47 r, 07.03m,0000130460Hz,0000000000c,0000000.000s, 029.0C,00002191
2020-09-21 07:47:46 r, 06.79m,0000162155Hz,0000000000c,0000000.000s, 029.0C,00002191
2020-09-21 07:57:45 r, 06.21m,0000278090Hz,0000000000c,0000000.000s, 029.3C,00002191
2020-09-21 08:07:48 r, 00.00m,0000466001Hz,0000000000c,0000000.000s, 029.3C,00002191
2020-09-21 08:17:46 r, 06.06m,0000318924Hz,0000000000c,0000000.000s, 029.3C,00002191
2020-09-21 08:27:45 r, 00.00m,0000596304Hz,0000000000c,0000000.000s, 029.3C,00002191
2020-09-21 08:37:48 r, 00.00m,0000596376Hz,0000000000c,0000000.000s, 029.6C,00002191
2020-09-21 08:47:46 r, 00.00m,0000596296Hz,0000000000c,0000000.000s, 029.6C,00002191
2020-09-21 08:57:45 r, 00.00m,0000596300Hz,0000000000c,0000000.000s, 029.6C,00002191
2020-09-21 09:07:46 r, 00.00m,0000596253Hz,0000000000c,0000000.000s, 029.6C,00002191
2020-09-21 09:17:47 r, 00.00m,0000596240Hz,0000000000c,0000000.000s, 029.9C,00002191
2020-09-21 09:27:45 r, 00.00m,0000596275Hz,0000000000c,0000000.000s, 029.9C,00002191
2020-09-21 09:37:47 r, 00.00m,0000596198Hz,0000000000c,0000000.000s, 029.9C,00002191
2020-09-21 09:47:46 r, 00.00m,0000596237Hz,0000000000c,0000000.000s, 030.2C,00002191
2020-09-21 09:57:45 r, 00.00m,0000596142Hz,0000000000c,0000000.000s, 030.9C,00002191
2020-09-21 10:07:46 r, 00.00m,0000596051Hz,0000000000c,0000000.000s, 030.9C,00002191
2020-09-21 10:17:48 r, 00.00m,0000596030Hz,0000000000c,0000000.000s, 031.5C,00002191
2020-09-21 10:27:45 r, 00.00m,0000596026Hz,0000000000c,0000000.000s, 031.9C,00002191
2020-09-21 10:37:48 r, 00.00m,0000595989Hz,0000000000c,0000000.000s, 031.9C,00002191
2020-09-21 10:47:46 r, 00.00m,0000595938Hz,0000000000c,0000000.000s, 032.2C,00002191
2020-09-21 10:57:45 r, 00.00m,0000595922Hz,0000000000c,0000000.000s, 032.5C,00002191
2020-09-21 11:07:48 r, 00.00m,0000595948Hz,0000000000c,0000000.000s, 032.5C,00002191
2020-09-21 11:17:46 r, 00.00m,0000596036Hz,0000000000c,0000000.000s, 032.2C,00002191
2020-09-21 11:27:45 r, 00.00m,0000596094Hz,0000000000c,0000000.000s, 031.9C,00002191
2020-09-21 11:37:46 r, 00.00m,0000596076Hz,0000000000c,0000000.000s, 031.9C,00002191
2020-09-21 11:47:48 r, 00.00m,0000596099Hz,0000000000c,0000000.000s, 031.5C,00002191
2020-09-21 11:57:45 r, 00.00m,0000596161Hz,0000000000c,0000000.000s, 031.2C,00002191
2020-09-21 12:07:47 r, 00.00m,0000596078Hz,0000000000c,0000000.000s, 031.2C,00002191
2020-09-21 12:17:46 r, 00.00m,0000596045Hz,0000000000c,0000000.000s, 031.9C,00002191
2020-09-21 12:27:45 r, 00.00m,0000596063Hz,0000000000c,0000000.000s, 031.5C,00002191
2020-09-21 12:37:48 r, 00.00m,0000596045Hz,0000000000c,0000000.000s, 031.5C,00002191
2020-09-21 12:47:46 r, 00.00m,0000596024Hz,0000000000c,0000000.000s, 031.5C,00002191
2020-09-21 12:57:45 r, 00.00m,0000596196Hz,0000000000c,0000000.000s, 031.5C,00002191
2020-09-21 13:07:48 r, 00.00m,0000596065Hz,0000000000c,0000000.000s, 031.5C,00002191
2020-09-21 13:17:46 r, 00.00m,0000595979Hz,0000000000c,0000000.000s, 031.5C,00002191
2020-09-21 13:27:45 r, 00.00m,0000595881Hz,0000000000c,0000000.000s, 032.5C,00002191
2020-09-21 13:37:46 r, 00.00m,0000595792Hz,0000000000c,0000000.000s, 033.1C,00002191
2020-09-21 13:47:47 r, 00.00m,0000595734Hz,0000000000c,0000000.000s, 033.8C,00002191
2020-09-21 13:57:45 r, 00.00m,0000595702Hz,0000000000c,0000000.000s, 033.8C,00002191
2020-09-21 14:07:47 r, 00.00m,0000595677Hz,0000000000c,0000000.000s, 034.4C,00002191
2020-09-21 14:17:46 r, 00.00m,0000595607Hz,0000000000c,0000000.000s, 035.1C,00002191
2020-09-21 14:27:45 r, 00.00m,0000595221Hz,0000000000c,0000000.000s, 037.0C,00002191
2020-09-21 14:37:46 r, 00.00m,0000594980Hz,0000000000c,0000000.000s, 039.0C,00002191
2020-09-21 14:47:48 r, 00.00m,0000595047Hz,0000000000c,0000000.000s, 039.0C,00002191
2020-09-21 14:57:45 r, 00.00m,0000594869Hz,0000000000c,0000000.000s, 040.2C,00002191
2020-09-21 15:07:48 r, 00.00m,0000594923Hz,0000000000c,0000000.000s, 040.2C,00002191
2020-09-21 15:17:46 r, 00.00m,0000595200Hz,0000000000c,0000000.000s, 038.6C,00002191
2020-09-21 15:27:45 r, 00.00m,0000595009Hz,0000000000c,0000000.000s, 039.0C,00002191
2020-09-21 15:37:46 r, 00.00m,0000594998Hz,0000000000c,0000000.000s, 039.6C,00002191
2020-09-21 15:47:47 r, 00.00m,0000595019Hz,0000000000c,0000000.000s, 039.3C,00002191
2020-09-21 15:57:45 r, 00.00m,0000594700Hz,0000000000c,0000000.000s, 041.2C,00002191
2020-09-21 16:07:45 r, 00.00m,0000594783Hz,0000000000c,0000000.000s, 041.9C,00002191
2020-09-21 16:17:48 r, 00.00m,0000594825Hz,0000000000c,0000000.000s, 040.6C,00002191
2020-09-21 16:27:45 r, 00.00m,0000595139Hz,0000000000c,0000000.000s, 039.0C,00002191
2020-09-21 16:37:45 r, 00.00m,0000594944Hz,0000000000c,0000000.000s, 039.6C,00002191
2020-09-21 16:47:48 r, 00.00m,0000595015Hz,0000000000c,0000000.000s, 039.9C,00002191
2020-09-21 16:57:45 r, 00.00m,0000595066Hz,0000000000c,0000000.000s, 039.6C,00002191
2020-09-21 17:07:45 r, 00.00m,0000595030Hz,0000000000c,0000000.000s, 039.6C,00002191
2020-09-21 17:17:46 r, 00.00m,0000595021Hz,0000000000c,0000000.000s, 039.3C,00002191
2020-09-21 17:27:45 r, 00.00m,0000595124Hz,0000000000c,0000000.000s, 039.0C,00002191
2020-09-21 17:37:45 r, 00.00m,0000595201Hz,0000000000c,0000000.000s, 038.0C,00002191
2020-09-21 17:47:46 r, 00.00m,0000595221Hz,0000000000c,0000000.000s, 037.7C,00002191
2020-09-21 17:57:45 r, 00.00m,0000595296Hz,0000000000c,0000000.000s, 037.0C,00002191
2020-09-21 18:07:45 r, 00.00m,0000595301Hz,0000000000c,0000000.000s, 036.4C,00002191
2020-09-21 18:17:48 r, 00.00m,0000595428Hz,0000000000c,0000000.000s, 036.0C,00002191
2020-09-21 18:27:45 r, 00.00m,0000595485Hz,0000000000c,0000000.000s, 035.4C,00002191
2020-09-21 18:37:45 r, 00.00m,0000595621Hz,0000000000c,0000000.000s, 035.1C,00002191
2020-09-21 18:47:48 r, 00.00m,0000513267Hz,0000000000c,0000000.000s, 034.4C,00002191
2020-09-21 18:57:45 r, 05.87m,0000378181Hz,0000000000c,0000000.000s, 033.8C,00002191
2020-09-21 19:07:45 r, 06.34m,0000247334Hz,0000000000c,0000000.000s, 033.1C,00002191
2020-09-21 19:17:46 r, 06.96m,0000139250Hz,0000000000c,0000000.000s, 032.5C,00002191
2020-09-21 19:27:45 r, 07.87m,0000060118Hz,0000000000c,0000000.000s, 031.9C,00002191
2020-09-21 19:37:45 r, 09.20m,0000017763Hz,0000000000c,0000000.000s, 031.2C,00002191
2020-09-21 19:47:46 r, 11.05m,0000003228Hz,0000000000c,0000000.000s, 030.9C,00002191
2020-09-21 19:57:45 r, 13.20m,0000000445Hz,0000000000c,0000000.000s, 029.9C,00002191
2020-09-21 20:07:45 r, 15.40m,0000000058Hz,0000007903c,0000000.017s, 029.9C,00002191
2020-09-21 20:17:47 r, 17.24m,0000000010Hz,0000043364c,0000000.094s, 029.3C,00002191
2020-09-21 20:27:45 r, 18.72m,0000000003Hz,0000168846c,0000000.366s, 028.6C,00002191
2020-09-21 20:37:45 r, 19.83m,0000000001Hz,0000466523c,0000001.012s, 028.3C,00002191
2020-09-21 20:47:48 r, 20.43m,0000000000Hz,0000813293c,0000001.765s, 028.0C,00002191
2020-09-21 20:57:46 r, 20.67m,0000000000Hz,0001005955c,0000002.183s, 027.3C,00002191
2020-09-21 21:07:45 r, 20.74m,0000000000Hz,0001068288c,0000002.318s, 027.0C,00002191
2020-09-21 21:17:48 r, 20.77m,0000000000Hz,0001103913c,0000002.396s, 026.4C,00002191
2020-09-21 21:27:46 r, 20.80m,0000000001Hz,0001132513c,0000002.458s, 026.1C,00002191
2020-09-21 21:37:45 r, 20.83m,0000000001Hz,0001163308c,0000002.525s, 025.7C,00002191
2020-09-21 21:47:46 r, 20.86m,0000000001Hz,0001198750c,0000002.601s, 025.7C,00002191
2020-09-21 21:57:48 r, 20.88m,0000000001Hz,0001225036c,0000002.658s, 025.4C,00002191
2020-09-21 22:07:45 r, 20.90m,0000000000Hz,0001243421c,0000002.698s, 025.1C,00002191
2020-09-21 22:17:47 r, 20.92m,0000000000Hz,0001256127c,0000002.726s, 024.8C,00002191
2020-09-21 22:27:46 r, 20.93m,0000000001Hz,0001262056c,0000002.739s, 024.4C,00002191
2020-09-21 22:37:45 r, 20.94m,0000000001Hz,0001285393c,0000002.789s, 024.1C,00002191
2020-09-21 22:47:48 r, 20.96m,0000000000Hz,0001303940c,0000002.830s, 024.1C,00002191
2020-09-21 22:57:46 r, 20.96m,0000000001Hz,0001310056c,0000002.843s, 023.8C,00002191
2020-09-21 23:07:45 r, 20.98m,0000000001Hz,0001323150c,0000002.871s, 023.8C,00002191
2020-09-21 23:17:48 r, 20.98m,0000000000Hz,0001331703c,0000002.890s, 023.5C,00002191
2020-09-21 23:27:46 r, 21.00m,0000000001Hz,0001345133c,0000002.919s, 023.5C,00002191
2020-09-21 23:37:45 r, 21.00m,0000000000Hz,0001359088c,0000002.949s, 023.2C,00002191
2020-09-21 23:47:46 r, 21.02m,0000000001Hz,0001374199c,0000002.982s, 023.2C,00002191
2020-09-21 23:57:47 r, 21.05m,0000000000Hz,0001410731c,0000003.061s, 023.2C,00002191
